Location: Newark
(3.0500°N, 36.0167°E)
Time: 02:34:05
(UTC+00:00)

Transit 2A Rocket - Pass Details

Date: 24 August 2019
Orbit: 594 x 910 km, 66.7° (Epoch: 17 October)

Event Time Altitude Azimuth Distance (km) Brightness Sun altitude
Rises 14:37:29 0° 195° (SSW) 3,529 8.5 15.5°
Reaches altitude 10° 14:40:02 10° 193° (SSW) 2,591 7.8 14.9°
Maximum altitude 14:46:05 72° 109° (ESE) 941 5.5 13.4°
Drops below altitude 10° 14:51:56 10° 26° (NNE) 2,505 7.6 12.0°
Sets 14:54:21 0° 24° (NNE) 3,405 8.2 11.4°
